Weather History for KAAA - July, 2013

Change the Weather History Date:

Wednesday, July 3, 2013

  Actual Average (KSPI) Record (KSPI)
Temperature  
Mean Temperature 70 °F 76 °F  
Max Temperature 80 °F 86 °F 99 °F (1934)
Min Temperature 61 °F 65 °F 51 °F (1968)
Degree Days  
Heating Degree Days 0 0  
Month to date heating degree days 0  
Since 1 June heating degree days 15  
Since 1 July heating degree days 0  
Cooling Degree Days 5 11  
Month to date cooling degree days 33  
Year to date cooling degree days 377  
Since 1 June cooling degree days 273  
Growing Degree Days 20 (Base 50)    
Moisture  
Dew Point 56 °F    
Average Humidity 67    
Maximum Humidity 93    
Minimum Humidity 34    
Precipitation  
Precipitation 0.00 in 0.13 in 3.48 in (1950)
Month to date precipitation 0.39  
Year to date precipitation 18.86  
Snow  
Snow 0.00 in 0.00 in 0.00 in ()
Month to date snowfall 0.0  
Since 1 June snowfall 0.0  
Since 1 July snowfall 0.0  
Snow Depth -    
Sea Level Pressure  
Sea Level Pressure 30.04 in    
Wind  
Wind Speed 0 mph (NNW)    
Max Wind Speed 6 mph    
Max Gust Speed -    
Visibility 9 miles    
Events Rain    
T = Trace of Precipitation, MM = Missing Value Source: NWS Daily Summary

Daily Weather History Graph

Daily Weather History Graph

Search for Another Location

Airport or City:

Trip Planner

Search our weather history database for the weather conditions in past years. The results will help you decide how hot, cold, wet, or windy it might be!

Date:

Astronomy

Jul. 03, 2013 Rise Set
Actual Time 5:32 AM CDT 8:30 PM CDT
Civil Twilight 5:00 AM CDT 9:02 PM CDT
Nautical Twilight 4:18 AM CDT 9:44 PM CDT
Astronomical Twilight 3:30 AM CDT 10:32 PM CDT
Moon 2:10 AM CDT (7/3) 4:40 PM CDT (7/3)
Length of Visible Light 16h 02m
Length of Day
14h 57m
Waning Crescent, 18% of the Moon is Illuminated
Jul 3
Waning Crescent
Jul 8
New
Jul 15
First Quarter
Jul 22
Full
Jul 29
Last Quarter

Hourly Weather History & Observations

Time (CDT) Temp. Dew Point Humidity Pressure Visibility Wind Dir Wind Speed Gust Speed Precip Events Conditions
12:15 AM 62.2 °F 57.2 °F 84% 30.03 in 10.0 mi Calm Calm - N/A   Clear
12:35 AM 62.2 °F 57.6 °F 85% 30.03 in 10.0 mi Calm Calm - N/A   Clear
12:55 AM 62.6 °F 58.1 °F 85% 30.03 in 10.0 mi Calm Calm - N/A Rain Light Rain
1:15 AM 61.9 °F 58.5 °F 89% 30.03 in 7.0 mi Calm Calm - N/A Rain Light Rain
1:35 AM 61.7 °F 59.0 °F 91% 30.03 in 7.0 mi Calm Calm - N/A   Clear
1:55 AM 61.2 °F 58.6 °F 91% 30.03 in 7.0 mi Calm Calm - N/A   Scattered Clouds
2:15 AM 61.3 °F 58.8 °F 91% 30.02 in 7.0 mi Calm Calm - N/A   Overcast
2:35 AM 61.3 °F 58.5 °F 90% 30.02 in 7.0 mi Calm Calm - N/A   Overcast
2:55 AM 61.2 °F 58.6 °F 91% 30.02 in 7.0 mi Calm Calm - N/A   Mostly Cloudy
3:15 AM 61.2 °F 59.0 °F 93% 30.02 in 7.0 mi Calm Calm - N/A   Scattered Clouds
3:35 AM 61.0 °F 58.6 °F 92% 30.01 in 7.0 mi Calm Calm - N/A   Scattered Clouds
3:55 AM 61.2 °F 58.6 °F 91% 30.02 in 7.0 mi Calm Calm - N/A   Clear
4:15 AM 61.0 °F 58.6 °F 92% 30.02 in 5.0 mi Calm Calm - N/A   Mostly Cloudy
4:35 AM 61.0 °F 58.5 °F 91% 30.02 in 7.0 mi Calm Calm - N/A   Overcast
4:55 AM 61.2 °F 58.5 °F 91% 30.02 in 7.0 mi Calm Calm - N/A   Overcast
5:15 AM 61.2 °F 58.6 °F 91% 30.02 in 7.0 mi Calm Calm - N/A   Overcast
5:35 AM 61.3 °F 59.0 °F 92% 30.03 in 5.0 mi Calm Calm - N/A   Overcast
5:55 AM 61.2 °F 59.0 °F 93% 30.04 in 5.0 mi Calm Calm - N/A Rain Light Rain
6:15 AM 61.0 °F 59.0 °F 93% 30.04 in 5.0 mi Calm Calm - N/A Rain Light Rain
6:35 AM 61.2 °F 59.2 °F 93% 30.05 in 5.0 mi Calm Calm - N/A   Overcast
6:55 AM 61.2 °F 59.0 °F 93% 30.05 in 5.0 mi Calm Calm - N/A   Overcast
7:15 AM 61.3 °F 59.0 °F 92% 30.05 in 4.0 mi Calm Calm - N/A   Overcast
7:35 AM 62.1 °F 59.5 °F 91% 30.06 in 4.0 mi Calm Calm - N/A   Overcast
7:55 AM 62.8 °F 59.2 °F 88% 30.06 in 5.0 mi Calm Calm - N/A   Overcast
8:15 AM 63.1 °F 59.4 °F 87% 30.07 in 5.0 mi Calm Calm - N/A   Overcast
8:35 AM 63.7 °F 59.4 °F 86% 30.07 in 5.0 mi Calm Calm - N/A   Haze
8:55 AM 64.8 °F 59.4 °F 83% 30.07 in 5.0 mi Calm Calm - N/A   Haze
9:15 AM 65.3 °F 58.3 °F 78% 30.07 in 7.0 mi Calm Calm - N/A   Scattered Clouds
9:35 AM 66.4 °F 58.3 °F 75% 30.07 in 10.0 mi Calm Calm - N/A   Scattered Clouds
9:55 AM 68.0 °F 58.8 °F 72% 30.07 in 10.0 mi Calm Calm - N/A   Mostly Cloudy
10:15 AM 69.6 °F 58.1 °F 67% 30.07 in 10.0 mi Calm Calm - N/A   Scattered Clouds
10:35 AM 71.1 °F 58.8 °F 65% 30.07 in 10.0 mi NNE 3.5 mph - N/A   Scattered Clouds
10:55 AM 72.5 °F 59.2 °F 63% 30.07 in 10.0 mi WNW 3.5 mph - N/A   Scattered Clouds
11:15 AM 72.5 °F 59.0 °F 62% 30.06 in 10.0 mi North 3.5 mph - N/A   Scattered Clouds
11:35 AM 73.8 °F 57.4 °F 56% 30.07 in 10.0 mi North 5.8 mph - N/A   Clear
11:55 AM 73.9 °F 56.5 °F 54% 30.06 in 10.0 mi Calm Calm - N/A   Clear
12:15 PM 74.5 °F 55.8 °F 52% 30.05 in 10.0 mi Calm Calm - N/A   Clear
12:35 PM 76.3 °F 56.7 °F 51% 30.05 in 10.0 mi NNW 3.5 mph - N/A   Clear
12:55 PM 76.5 °F 53.8 °F 45% 30.05 in 10.0 mi NW 3.5 mph - N/A   Clear
1:15 PM 77.4 °F 51.6 °F 41% 30.06 in 10.0 mi Calm Calm - N/A   Scattered Clouds
1:35 PM 77.7 °F 50.2 °F 38% 30.05 in 10.0 mi Calm Calm - N/A   Clear
1:55 PM 78.1 °F 48.9 °F 36% 30.05 in 10.0 mi North 5.8 mph - N/A   Clear
2:15 PM 78.1 °F 50.7 °F 38% 30.05 in 10.0 mi North 4.6 mph - N/A   Clear
2:35 PM 78.3 °F 50.4 °F 38% 30.04 in 10.0 mi Calm Calm - N/A   Clear
2:55 PM 79.3 °F 51.6 °F 38% 30.04 in 10.0 mi Calm Calm - N/A   Clear
3:15 PM 79.2 °F 50.0 °F 36% 30.03 in 10.0 mi Calm Calm - N/A   Clear
3:35 PM 79.7 °F 49.1 °F 34% 30.04 in 10.0 mi Calm Calm - N/A   Clear
3:55 PM 79.5 °F 48.7 °F 34% 30.03 in 10.0 mi SW 4.6 mph - N/A   Clear
4:15 PM 79.9 °F 49.3 °F 34% 30.03 in 10.0 mi Calm Calm - N/A   Clear
4:35 PM 79.7 °F 51.8 °F 38% 30.03 in 10.0 mi NW 4.6 mph - N/A   Clear
4:55 PM 79.5 °F 51.1 °F 37% 30.02 in 10.0 mi WSW 3.5 mph - N/A   Clear
5:15 PM 79.7 °F 52.7 °F 39% 30.02 in 10.0 mi Calm Calm - N/A   Clear
5:35 PM 79.7 °F 52.9 °F 39% 30.02 in 10.0 mi Calm Calm - N/A   Clear
5:55 PM 79.3 °F 53.2 °F 40% 30.01 in 10.0 mi NW 3.5 mph - N/A   Clear
6:15 PM 79.2 °F 54.3 °F 42% 30.01 in 10.0 mi Calm Calm - N/A   Clear
6:35 PM 79.0 °F 53.8 °F 42% 30.01 in 10.0 mi Calm Calm - N/A   Clear
6:55 PM 78.8 °F 54.1 °F 42% 30.01 in 10.0 mi Calm Calm - N/A   Clear
7:15 PM 77.9 °F 54.1 °F 44% 30.01 in 10.0 mi Calm Calm - N/A   Clear
7:35 PM 77.4 °F 54.1 °F 44% 30.01 in 10.0 mi Calm Calm - N/A   Clear
7:55 PM 76.1 °F 55.4 °F 49% 30.02 in 10.0 mi Calm Calm - N/A   Clear
8:15 PM 74.1 °F 56.7 °F 54% 30.02 in 10.0 mi Calm Calm - N/A   Clear
8:35 PM 72.9 °F 57.4 °F 58% 30.03 in 10.0 mi Calm Calm - N/A   Clear
8:55 PM 71.2 °F 59.0 °F 65% 30.03 in 10.0 mi Calm Calm - N/A   Clear
9:15 PM 69.8 °F 58.1 °F 66% 30.04 in 10.0 mi Calm Calm - N/A   Clear
9:35 PM 69.3 °F 57.9 °F 67% 30.05 in 10.0 mi Calm Calm - N/A   Clear
9:55 PM 68.9 °F 57.4 °F 67% 30.05 in 10.0 mi Calm Calm - N/A   Clear
10:15 PM 68.5 °F 57.2 °F 67% 30.05 in 10.0 mi Calm Calm - N/A   Clear
10:35 PM 68.0 °F 57.4 °F 69% 30.05 in 10.0 mi Calm Calm - N/A   Clear
10:55 PM 67.3 °F 57.7 °F 71% 30.06 in 10.0 mi Calm Calm - N/A   Clear
11:15 PM 66.4 °F 57.7 °F 74% 30.07 in 10.0 mi Calm Calm - N/A   Scattered Clouds
11:35 PM 66.2 °F 57.6 °F 74% 30.06 in 10.0 mi Calm Calm - N/A   Scattered Clouds
11:55 PM 66.4 °F 57.4 °F 73% 30.06 in 10.0 mi Calm Calm - N/A   Clear